This is the latest recevied weather packets stored in our database for station/object KD9JJA. If no packets are shown the sender has not sent any weather packets the latest 10 day(s).
| Time | Temp. | Humidity | Pressure | Rain* | Wind** | Luminosity | Snow |
|---|---|---|---|---|---|---|---|
| 1777431368 | 16.11° C | 90% | 1014.2 hPa | 0 mm | - | 0 W/m² | - |
| 1777431063 | 16.11° C | 89% | 1014.1 hPa | 0 mm | - | 0 W/m² | - |
| 1777430760 | 16.67° C | 87% | 1014.3 hPa | 0 mm | - | 0 W/m² | - |
| 1777430456 | 16.67° C | 87% | 1014.4 hPa | 0 mm | - | 0 W/m² | - |
| 1777430151 | 16.67° C | 87% | 1014.1 hPa | 0 mm | - | 0 W/m² | - |
| 1777429847 | 16.67° C | 88% | 1014.2 hPa | 0 mm | - | 0 W/m² | - |
| 1777429544 | 16.67° C | 89% | 1014.2 hPa | 0 mm | - | 0 W/m² | - |
| 1777429239 | 16.67° C | 89% | 1013.6 hPa | 0 mm | - | 0 W/m² | - |
| 1777428935 | 16.67° C | 89% | 1013.8 hPa | 0 mm | - | 0 W/m² | - |
| 1777428632 | 16.67° C | 88% | 1013.9 hPa | 0 mm | - | 0 W/m² | - |
| 1777428327 | 16.67° C | 88% | 1014.4 hPa | 0 mm | - | 0 W/m² | - |
| 1777428022 | 16.67° C | 87% | 1014.6 hPa | 0 mm | - | 0 W/m² | - |
| 1777427719 | 16.67° C | 88% | 1015 hPa | 0 mm | - | 0 W/m² | - |
| 1777427417 | 16.67° C | 87% | 1014.6 hPa | 0 mm | - | 0 W/m² | - |
| 1777427112 | 16.67° C | 86% | 1014.6 hPa | 0 mm | - | 0 W/m² | - |
| 1777426810 | 16.67° C | 88% | 1014.5 hPa | 0 mm | - | 0 W/m² | - |
| 1777426507 | 16.67° C | 91% | 1014.6 hPa | 0 mm | - | 0 W/m² | - |
| 1777426203 | 17.22° C | 92% | 1014.6 hPa | 0 mm | - | 0 W/m² | - |
| 1777425898 | 17.22° C | 92% | 1014.8 hPa | 0 mm | - | 0 W/m² | - |
| 1777425593 | 17.22° C | 91% | 1014.8 hPa | 0 mm | - | 0 W/m² | - |
| 1777425289 | 17.22° C | 90% | 1014.8 hPa | 0 mm | - | 0 W/m² | - |
| 1777424981 | 17.22° C | 91% | 1014.6 hPa | 0 mm | - | 0 W/m² | - |
| 1777424676 | 17.22° C | 89% | 1014.5 hPa | 0 mm | - | 0 W/m² | - |
| 1777424370 | 17.22° C | 89% | 1014.6 hPa | 0 mm | - | 0 W/m² | - |
| 1777424061 | 17.78° C | 86% | 1014.6 hPa | 0 mm | - | 0 W/m² | - |
* Rain latest hour (hover to see other rain measurements)
** Current wind speed in m/s (hover to see current wind gust speed)